Date,TemperatureHighF,TemperatureAvgF,TemperatureLowF,DewpointHighF,DewpointAvgF,DewpointLowF,HumidityHigh,HumidityAvg,HumidityLow,PressureMaxIn,PressureMinIn,WindSpeedMaxMPH,WindSpeedAvgMPH,GustSpeedMaxMPH,PrecipitationSumIn
2013-1-1,27,23,19,20,17,14,88,78,63,30.22,30.09,12,3,15,0.00
2013-1-2,26,22,14,22,18,12,90,86,80,30.22,30.14,12,4,15,0.00
2013-1-3,30,24,14,27,20,11,97,88,79,30.23,30.11,16,5,17,0.00
2013-1-4,33,28,24,27,24,21,94,85,76,30.23,30.10,25,10,27,0.00
2013-1-5,37,30,20,29,25,19,100,83,71,30.28,30.01,17,5,18,0.00
2013-1-6,36,34,31,33,29,25,100,83,72,30.32,29.91,18,6,20,0.00
2013-1-7,37,30,24,27,24,20,95,80,53,30.38,30.16,24,7,27,0.00
2013-1-8,39,32,24,30,26,22,92,82,70,30.25,30.12,14,5,17,0.00
2013-1-9,46,39,26,36,32,25,96,77,52,30.46,30.03,30,8,33,0.01
2013-1-10,44,32,21,36,28,21,100,86,59,30.56,30.08,21,3,21,0.39
2013-1-11,53,47,36,53,46,36,100,97,90,30.08,29.75,20,8,24,0.44
2013-1-12,57,50,38,50,45,35,96,83,62,29.97,29.77,20,7,22,0.12
2013-1-13,38,32,24,38,31,20,100,97,86,30.15,29.81,20,5,21,0.15
2013-1-14,24,21,12,21,18,12,100,88,77,30.48,30.15,22,4,24,0.00
2013-1-15,30,19,10,23,16,9,100,88,67,30.48,30.19,8,1,8,0.00
2013-1-16,34,25,12,31,21,12,100,86,57,30.19,29.85,25,6,28,0.00
2013-1-17,34,28,21,31,22,13,88,77,64,30.38,30.03,26,6,26,0.00
2013-1-18,38,28,20,29,21,14,86,74,61,30.45,29.96,28,8,30,0.00
2013-1-19,45,40,36,38,32,27,82,75,59,29.96,29.65,32,11,41,0.00
2013-1-20,40,18,15,27,14,11,93,84,51,30.25,29.66,35,9,43,0.00
2013-1-21,16,11,5,14,10,3,96,93,87,30.22,30.07,24,6,24,0.00
2013-1-22,11,4,-3,9,2,-5,95,91,83,30.36,30.22,17,3,20,0.00
2013-1-23,15,10,4,14,8,2,97,93,91,30.36,30.12,18,4,19,0.00
2013-1-24,23,8,-13,21,4,-15,100,86,60,30.69,30.25,10,0,10,0.00
2013-1-25,21,18,12,21,14,5,100,84,70,30.53,30.03,15,4,16,0.00
2013-1-26,28,22,17,21,19,16,97,88,64,30.48,30.10,13,2,15,0.00
2013-1-27,29,24,12,22,20,12,100,83,76,30.48,30.35,16,4,18,0.00
2013-1-28,40,31,28,39,27,22,100,84,77,30.35,29.94,11,4,14,0.42
2013-1-29,58,51,34,57,51,34,100,100,94,30.00,29.40,26,7,29,0.47
2013-1-30,53,43,25,53,43,24,100,98,88,29.41,29.11,26,6,31,0.63
2013-1-31,25,18,15,24,17,12,100,93,82,29.99,29.41,28,8,28,0.00
2013-2-1,15,12,8,14,10,4,97,90,78,30.32,29.99,20,8,22,0.00
2013-2-2,20,13,3,19,11,2,100,91,80,30.25,30.04,15,4,16,0.00
2013-2-3,20,14,4,18,13,2,96,94,88,30.08,29.94,21,3,24,0.00
2013-2-4,25,18,7,22,17,6,100,95,87,30.07,29.92,9,1,10,0.00
2013-2-5,28,18,1,28,16,-1,100,95,84,30.07,29.84,17,4,19,0.00
2013-2-6,34,25,9,27,20,8,100,82,63,30.30,30.07,12,2,15,0.00
2013-2-7,37,31,26,32,27,21,100,86,78,30.25,29.86,13,3,15,0.04
2013-2-8,32,27,13,31,25,12,100,91,74,30.41,29.87,17,4,19,0.01
2013-2-9,33,19,0,24,14,-1,100,85,68,30.49,30.23,16,4,16,0.00
2013-2-10,43,34,24,43,30,21,100,87,75,30.24,29.59,20,7,23,0.07
2013-2-11,45,35,29,45,32,26,100,89,72,29.94,29.55,33,14,41,0.00
2013-2-12,30,28,26,26,24,23,91,87,84,30.10,29.94,20,7,20,0.00
2013-2-13,40,30,18,32,26,18,100,86,68,29.97,29.75,13,2,16,0.00
2013-2-14,39,33,23,35,31,23,100,94,83,29.94,29.68,27,7,31,0.00
2013-2-15,29,24,19,29,21,17,100,88,71,30.19,29.94,16,3,17,0.00
2013-2-16,21,16,2,20,14,1,100,92,73,30.16,30.09,20,3,20,0.00
2013-2-17,28,11,-8,17,6,-10,100,83,57,30.29,30.16,13,1,13,0.00
2013-2-18,48,34,18,44,28,13,100,77,64,30.20,29.48,25,8,32,0.09
2013-2-19,44,23,15,43,21,14,100,94,88,30.05,29.42,32,12,39,0.08
2013-2-20,21,18,15,18,15,13,96,88,79,30.35,30.05,19,6,20,0.00
2013-2-21,27,23,20,22,18,16,88,83,77,30.43,30.19,17,4,18,0.00
2013-2-22,32,26,21,32,25,17,100,95,81,30.19,29.88,17,6,28,0.00
2013-2-23,29,26,24,27,24,22,95,91,83,29.97,29.90,19,8,19,0.00
2013-2-24,36,28,17,31,25,17,100,91,77,30.20,29.94,17,3,18,0.06
2013-2-25,47,27,10,30,21,10,100,82,48,30.27,30.10,7,1,8,0.00
2013-2-26,36,31,26,32,27,23,100,87,70,30.13,29.52,21,5,28,0.00
2013-2-27,38,33,32,38,33,32,100,100,96,29.63,29.49,8,1,8,0.28
2013-2-28,36,33,30,33,31,27,100,91,83,30.02,29.62,17,6,18,0.14
2013-3-1,30,27,19,27,22,17,94,82,73,30.18,30.02,14,4,14,0.00
2013-3-2,27,22,16,19,17,13,92,81,70,30.20,30.14,15,3,15,0.00
2013-3-3,30,22,10,20,16,9,100,81,62,30.15,30.08,19,4,19,0.00
2013-3-4,37,23,7,24,16,6,100,78,50,30.21,30.11,9,1,9,0.00
2013-3-5,36,28,20,26,22,16,91,77,64,30.15,29.84,23,5,26,0.00
2013-3-6,38,32,26,31,28,24,92,85,75,30.27,29.94,24,5,25,0.00
2013-3-7,36,32,21,30,26,20,95,81,61,30.45,30.26,15,3,15,0.00
2013-3-8,47,29,15,28,22,14,100,78,44,30.55,30.42,8,1,8,0.00
2013-3-9,42,35,23,36,29,21,93,79,65,30.43,29.98,19,5,22,0.00
2013-3-10,57,49,41,48,42,36,100,78,68,29.98,29.71,18,5,18,0.12
2013-3-11,54,45,34,50,44,33,100,95,68,29.71,29.49,25,8,29,0.16
2013-3-12,34,31,28,33,29,26,100,93,77,29.93,29.70,22,8,22,0.00
2013-3-13,29,26,20,27,21,15,100,85,65,30.30,29.92,25,7,29,0.00
2013-3-14,39,28,14,27,19,13,97,73,43,30.33,30.14,16,2,18,0.00
2013-3-15,40,34,30,36,32,26,100,94,78,30.14,29.85,16,4,16,0.06
2013-3-16,32,29,26,32,27,22,100,92,78,30.11,29.76,15,4,15,0.00
2013-3-17,34,28,24,24,20,17,85,73,58,30.29,30.11,18,4,18,0.00
2013-3-18,33,29,24,33,27,20,100,92,76,30.15,29.60,27,5,30,0.01
2013-3-19,30,24,19,29,20,17,97,85,67,30.02,29.69,27,11,31,0.00
2013-3-20,27,21,15,18,16,14,95,82,67,30.03,29.98,21,8,25,0.01
2013-3-21,29,21,9,26,19,8,100,92,76,30.05,29.97,19,4,21,0.00
2013-3-22,34,28,22,27,22,20,93,80,66,30.09,30.04,17,3,18,0.00
2013-3-23,34,27,18,26,23,17,100,86,72,30.18,30.08,8,1,9,0.00
2013-3-24,37,29,20,29,25,19,100,84,68,30.08,29.70,25,4,27,0.01
2013-3-25,37,33,30,31,28,25,87,80,70,30.01,29.66,24,8,24,0.00
2013-3-26,40,34,29,33,30,28,94,86,72,30.21,30.01,19,6,20,0.00
2013-3-27,42,36,28,32,28,24,100,75,54,30.30,30.21,26,6,26,0.00
2013-3-28,49,37,25,32,27,22,96,70,44,30.34,30.29,19,4,19,0.00
2013-3-29,50,35,19,30,24,18,100,69,39,30.34,30.26,16,3,19,0.00
2013-3-30,56,39,19,36,27,18,100,67,36,30.27,29.91,16,4,17,0.00
2013-3-31,52,45,37,43,39,31,100,80,63,29.91,29.67,24,7,24,0.01
2013-4-1,37,30,24,32,19,14,87,65,51,30.17,29.79,24,8,26,0.00
2013-4-2,37,28,16,24,19,12,100,72,38,30.32,30.16,25,5,27,0.00
2013-4-3,49,31,18,25,19,14,95,66,30,30.49,30.31,18,2,18,0.00
2013-4-4,53,38,21,28,22,18,93,57,29,30.38,29.97,18,4,19,0.00
2013-4-5,49,39,30,30,25,19,83,59,34,30.22,29.97,19,4,19,0.00
2013-4-6,59,47,32,42,30,24,81,55,40,30.20,29.68,28,10,33,0.00
2013-4-7,60,47,32,50,39,30,93,76,53,30.02,29.59,32,8,33,0.02
2013-4-8,62,42,30,55,40,28,100,91,71,30.02,29.67,35,7,41,0.20
2013-4-9,54,44,38,52,44,38,100,99,92,30.06,29.85,15,3,18,0.17
2013-4-10,43,40,38,43,40,38,100,98,96,30.11,29.86,29,5,32,0.27
2013-4-11,39,37,35,39,37,35,100,100,97,29.98,29.63,21,6,25,1.23
2013-4-12,44,38,34,39,36,34,100,94,72,29.82,29.58,26,7,26,0.16
2013-4-13,39,37,35,36,31,27,100,80,68,30.01,29.82,27,8,27,0.00
2013-4-14,56,41,30,44,36,28,97,83,60,30.11,29.83,24,5,26,0.04
2013-4-15,65,56,46,58,50,41,100,83,74,29.95,29.81,23,8,26,0.30
2013-4-16,52,46,40,46,39,31,100,80,47,30.26,29.93,17,4,17,0.25
2013-4-17,54,46,40,46,40,34,100,81,59,30.33,29.95,22,5,24,1.14
2013-4-18,51,48,46,51,48,46,100,100,99,29.95,29.81,15,3,17,0.73